Regional Weather Roundup
Issued by NWS

Home | Current Version | Previous Version | Graphics & Text | Print | Product List | Glossary On
Versions: 1 2 3 4 5 6 7 8 9 10 11 12 13 14 15 16 17 18 19 20 21 22 23 24 25 26 27 28 29 30 31 32 33 34 35 36 37 38 39 40 41 42 43 44 45 46 47 48 49 50
000
ASUS43 KIND 251909
RWRIN

WEATHER ROUNDUP FOR INDIANA
NATIONAL WEATHER SERVICE INDIANAPOLIS IN
200 PM EST THU DEC 25 2014

NOTE: "FAIR" INDICATES FEW OR NO CLOUDS BELOW 12,000 FEET WITH NO
SIGNIFICANT WEATHER AND/OR OBSTRUCTIONS TO VISIBILITY.

* - STATION DOES NOT REPORT WEATHER SUCH AS PRECIPITATION OR FOG.

+ - STATION NOT QUALITY CONTROLLED BY THE NATIONAL WEATHER SERVICE.
    USE DATA WITH CAUTION...ESPECIALLY DEWPOINT AND RELATIVE
    HUMIDITY OBSERVATIONS.

INZ001>003-010>013-019-020-252000-
NORTHWEST INDIANA

CITY           SKY/WX    TMP DP  RH WIND       PRES   REMARKS
GARY /AIRPORT/ CLOUDY    41  27  56 SW15G28   29.99R
KNOX *+        CLOUDY    37  29  71 SW16      30.00S
LA PORTE +     CLOUDY    39  32  75 SW16G22   29.99S
MICHIGAN CITY+ CLOUDY    37  28  70 SW14G26   29.99R
MONTICELLO +   CLOUDY    39  32  76 SW16G22   30.02S
RENSSELAER +   CLOUDY    39  36  87 SW18      30.02R
VALPARAISO     CLOUDY    38  29  70 SW16G25   30.00S

$$

LMZ046-743>745-252000-
SOUTHERN LAKE MICHIGAN

STATION/POSITION TIME  TEMP WIND        PRES
                       AIR  DIR/SP/G
                 (UTC) (F)  (DEG/KT/KT) (MB)
MICHIGAN CITY    1900   37  190/ 17/ 22   N/A

$$

INZ004-005-014>016-021>024-252000-
NORTH CENTRAL INDIANA

CITY           SKY/WX    TMP DP  RH WIND       PRES   REMARKS
GOSHEN         CLOUDY    37  30  75 SW18      30.00S
LOGANSPORT +   CLOUDY    36  32  87 SW13G20   30.05R
PERU/GRISSOM   CLOUDY    37  37 100 SW12      30.03S
ROCHESTER +    CLOUDY    37  34  87 SW12      30.03S
SOUTH BEND     CLOUDY    38  30  73 SW15      29.99
WARSAW +       CLOUDY    36  30  80 SW12G24   30.01F

$$

INZ006>009-017-018-025>027-252000-
NORTHEAST INDIANA

CITY           SKY/WX    TMP DP  RH WIND       PRES   REMARKS
ANGOLA *+      CLOUDY    36  30  80 W15       29.99R
AUBURN +       CLOUDY    36  30  80 SW8G20    30.02S
FORT WAYNE     CLOUDY    37  30  75 W21G28    30.04R
HUNTINGTON +   CLOUDY    36  31  83 SW10G17   30.04R

$$

INZ028-029-035-036-043>045-051>053-252000-
WEST CENTRAL INDIANA

CITY           SKY/WX    TMP DP  RH WIND       PRES   REMARKS
CRAWFORDSVL +  CLOUDY    37  28  70 S15       30.05
GREENCASTLE +  CLOUDY    37  30  75 SW8       30.06S
LAFAYETTE      CLOUDY    39  31  72 SW15      30.04S
TERRE HAUTE    MOSUNNY   42  32  67 SW16      30.06F

$$

INZ030>032-037>040-046>048-054>057-064-065-252000-
CENTRAL INDIANA

CITY           SKY/WX    TMP DP  RH WIND       PRES   REMARKS
CP ATTERBURY + CLOUDY    41  32  70 MISG      30.09F
COLUMBUS       CLOUDY    39  34  81 SW13      30.10S
FRANKFORT +    PTSUNNY   38  33  81 S16       30.06S
INDIANAPOLIS   PTSUNNY   39  31  72 SW14      30.05F
-EAGLE CREEK   CLOUDY    39  31  72 VRB7G17   30.05S
KOKOMO *+      CLOUDY    37  30  75 SW16      30.05R
MARION +       CLOUDY    36  31  81 SW17      30.06R
MT COMFORT *+  PTSUNNY   39  27  60 SW13G18   30.07S
SHELBYVILLE    CLOUDY    41  32  70 SW16      30.08S
ZIONSVILLE +   CLOUDY    38  31  75 SW13G18   30.06S

$$

INZ033-034-041-042-049-050-058-059-252000-
EAST CENTRAL INDIANA

CITY           SKY/WX    TMP DP  RH WIND       PRES   REMARKS
MUNCIE         CLOUDY    37  30  75 W15G23    30.06R

$$

INZ060-061-067>069-081>083-085>088-252000-
SOUTHWEST INDIANA

CITY           SKY/WX    TMP DP  RH WIND       PRES   REMARKS
EVANSVILLE     MOSUNNY   47  34  60 S15       30.13R
HUNTINGBURG *+ MOSUNNY   45  34  65 SW12      30.13R
WASHINGTON +   MOSUNNY   45  32  60 S14       30.09R

$$

INZ062-063-066-070>080-084-089>092-252000-
SOUTH CENTRAL AND SOUTHEAST INDIANA

CITY           SKY/WX    TMP DP  RH WIND       PRES   REMARKS
BLOOMINGTON    PTSUNNY   41  33  73 SW12      30.08F
NORTH VERNON + CLOUDY    41  34  75 S13       30.10

$$



USA.gov is the U.S. government's official web portal to all federal, state and local government web resources and services.